DELTA 1 DEB

基本信息
目录编号:
42081
目录名称:
DELTA 1 DEB
国际标识:
1968-114H
轨道中心:
EARTH
物体状态:
在轨
发射日期:
1968-12-15 UTC
轨道信息
数据来源: 国际轨道数据
星历时间: 2026-06-07T09:53:40+0800
半长轴: 7919.645km
偏心率: 0.0117456
轨道倾角: 101.699°
近地点辐角: 6.100°
升交点赤经: 105.333°
平近点角: 354.146°
近地点: 1448.487km
远地点: 1634.529km
周期: 116.901分钟
每日圈数: 12.318114
详细信息
发射场:
AFWTR
轨道高度:
LEO
数据来源:
AOE Integration Group
参考系:
TEME
时间系统:
UTC
历元类型:
SGP4
2D轨道图
3D轨道图
轨道高度分析图
轨道倾角分析图
轨道综合分析图
查看轨道综合分析图